Regional Weather Roundup
Issued by NWS

Home | Current Version | Previous Version | Graphics & Text | Print | Product List | Glossary On
Versions: 1 2 3 4 5 6 7 8 9 10 11 12 13 14 15 16 17 18 19 20 21 22 23 24 25 26 27 28 29 30 31 32 33 34 35 36 37 38 39 40 41 42 43 44 45 46 47 48 49 50
000
ASUS43 KTOP 221108
RWRKS

WEATHER ROUNDUP FOR KANSAS
NATIONAL WEATHER SERVICE GOODLAND KS
500 AM CST WED FEB 22 2017

NOTE:  "FAIR" INDICATES FEW OR NO CLOUDS BELOW 12,000 FEET WITH NO
SIGNIFICANT WEATHER AND/OR OBSTRUCTIONS TO VISIBILITY.

KSZ001>006-013>018-027>032-041>047-221200-
NORTHWEST KANSAS

CITY           SKY/WX    TMP DP  RH WIND       PRES   REMARKS
GOODLAND       CLOUDY    53  17  24 SW16      29.80R
HAYS             N/A     45  26  47 SW8       29.77S
HILL CITY      CLOUDY    51  25  36 W8        29.74R
RUSSELL        CLOUDY    47  31  53 S12       29.75S
$$

KSZ061>065-074>080-084>089-221200-
SOUTHWEST KANSAS

CITY           SKY/WX    TMP DP  RH WIND       PRES   REMARKS
DODGE CITY     CLOUDY    45  24  43 SW8       29.81R
ELKHART          N/A     48  15  26 W10         N/A
GARDEN CITY    CLOUDY    39  23  52 W6        29.81S
GREAT BEND     CLOUDY    43  32  65 SW12      29.78S
LIBERAL        CLOUDY    37  19  48 W8        29.84S
PRATT          CLEAR     39  32  77 S10       29.80F WCI  32
$$

KSZ066>073-081>083-090>101-221200-
SOUTHEAST KANSAS

CITY           SKY/WX    TMP DP  RH WIND       PRES   REMARKS
CHANUTE        CLEAR     47  40  76 S9        29.84S
COFFEYVILLE    CLEAR     39  38  96 CALM      29.86S FOG
HUTCHINSON     CLOUDY    46  33  60 SE6       29.81S
MEDICINE LODGE   N/A     44  35  70 S3        29.82F
NEWTON         CLOUDY    46  37  71 S14       29.83S
PARSONS        CLEAR     37  35  92 CALM      29.86S FOG
WICHITA INTL   CLEAR     40  35  83 S8        29.83S
WICHITA JABRA  CLOUDY    50  37  61 SW13      29.83S
WICHITA MCCONL CLEAR     45  35  69 SW9       29.83S
WINFIELD       CLEAR     44  36  73 CALM      29.85F
$$

KSZ007>012-019>026-033>040-048>060-102>105-221200-
NORTHEAST KANSAS

CITY           SKY/WX    TMP DP  RH WIND       PRES   REMARKS
CONCORDIA      CLOUDY    51  35  54 S21       29.72F
EMPORIA        PTCLDY    46  35  65 S6        29.81F
LAWRENCE       CLEAR     36  31  82 E6        29.82S
MANHATTAN      PTCLDY    50  36  58 SW10      29.78F
MARYSVILLE     CLEAR     50  36  57 SW10      29.74F
OLATHE IND     CLEAR     42  37  82 S6        29.83S
OLATHE EXE     CLEAR     47  39  74 SW5       29.82S
SALINA         CLOUDY    56  35  45 S15       29.77F
TOPEKA BILLARD CLOUDY    47  33  58 CALM      29.80R
TOPEKA FORBES  PTCLDY    46  34  62 S7        29.80S
$$




USA.gov is the U.S. government's official web portal to all federal, state and local government web resources and services.